Wetbulb
72.14 71.69 71.89 68.61 59.99 60.58 55.40 56.14 60.56 59.27 60.20 63.79 64.25 62.11 61.22 62.76 59.88 57.55 69.93 71.20 71.48 72.41 74.45 75.52 76.28 75.75 75.08 75.10 75.95 75.77 76.00 75.78 76.29 76.63 76.42 76.88 76.92 76.94 76.31 76.32 76.36 76.43 76.66 76.45 76.04 76.07 75.90 75.73 75.73
69.72 71.03 69.33 65.32 57.54 54.96 54.97 59.08 58.08 60.66 62.73 65.00 64.41 63.50 62.13 60.68 65.74 66.73 68.44 71.63 72.40 73.61 74.74 75.40 76.16 75.59 75.11 75.12 75.33 76.00 75.92 75.07 75.02 75.88 76.47 76.78 76.36 76.73 76.79 76.58 76.19 76.47 76.46 76.38 76.11 76.31 76.33 76.42 76.52
71.09 70.93 65.32 61.21 58.62 55.00 55.14 59.32 60.53 61.88 63.82 63.50 62.57 64.96 63.18 62.27 66.56 67.78 70.80 72.27 73.07 74.15 75.10 75.29 75.56 75.45 75.09 74.97 74.97 75.11 75.35 74.62 74.78 76.04 76.41 76.65 77.09 76.47 76.20 76.17 76.42 76.33 76.24 76.18 75.48 75.83 75.78 75.65 75.70
71.13 68.50 66.55 59.43 56.01 58.37 58.50 60.52 62.23 62.17 63.61 64.56 64.03 61.08 65.19 67.92 67.60 69.62 71.90 72.39 72.68 73.48 74.57 75.35 75.54 75.48 74.72 74.54 74.85 74.56 74.56 74.45 75.59 76.33 76.69 76.63 76.45 76.30 76.06 75.90 75.81 75.73 75.94 75.50 74.93 74.99 75.18 74.77 74.68
69.89 66.45 60.17 57.53 57.43 59.74 61.46 63.05 62.96 61.05 61.68 62.24 62.82 60.32 62.25 67.10 70.29 71.19 71.62 72.05 71.71 72.92 74.52 75.32 75.37 75.28 74.97 72.77 73.44 72.33 74.83 74.54 76.21 76.48 76.57 76.37 76.68 76.34 75.98 76.25 76.61 76.46 75.57 75.70 75.34 75.18 75.18 75.54 75.50
63.76 64.83 57.39 54.70 57.17 60.43 62.42 63.98 62.96 61.31 62.20 61.88 61.25 60.84 62.12 68.18 69.34 70.52 71.18 71.24 71.92 72.16 74.09 75.01 75.24 75.21 74.96 72.09 72.72 74.23 75.63 75.78 76.17 76.17 76.53 76.61 76.53 76.24 76.17 76.12 76.26 76.32 76.26 76.07 75.76 75.65 75.73 76.11 76.23
61.68 61.52 56.03 57.27 57.25 58.93 60.91 64.61 62.06 60.68 60.90 60.50 63.04 59.21 63.31 66.21 69.32 70.61 71.15 71.44 71.72 71.82 72.60 73.91 75.16 75.27 74.74 74.98 74.43 75.24 75.37 75.50 75.96 76.36 76.79 76.58 76.24 76.13 76.26 76.24 76.43 76.13 76.07 75.79 75.82 75.71 76.01 75.95 76.29
64.23 62.65 57.10 58.18 57.46 57.70 63.08 63.16 63.35 61.77 60.37 64.97 64.96 59.66 60.56 66.04 69.26 70.20 70.50 70.33 70.77 71.08 72.21 73.10 74.31 75.57 75.57 74.60 75.76 75.59 75.82 75.89 76.17 76.34 76.43 76.47 76.20 75.96 75.89 75.46 76.09 76.57 76.57 76.65 76.74 76.94 77.19 77.04 77.03
65.90 59.61 55.93 56.83 57.42 59.24 63.79 61.02 64.51 65.24 62.26 63.91 64.56 63.82 65.83 67.73 68.64 68.14 68.05 69.07 69.93 69.83 71.46 72.56 73.09 74.09 74.98 75.00 75.38 75.88 76.55 76.35 76.22 76.53 76.23 75.20 74.83 74.74 74.80 76.11 76.15 76.79 76.80 76.23 76.64 77.06 77.07 76.93 76.86
62.29 58.48 57.37 61.51 61.20 60.30 63.12 62.44 62.96 61.01 61.62 61.66 62.55 65.01 66.66 67.09 66.58 65.73 66.13 66.76 68.49 69.37 70.54 71.78 72.51 72.41 72.28 73.04 74.03 73.84 73.81 74.85 75.26 75.68 75.78 74.95 75.21 76.23 75.77 75.49 74.90 75.59 74.75 75.50 76.20 75.99 76.38 75.86 76.05
61.37 57.52 60.77 62.27 63.00 63.04 62.71 62.87 63.86 60.93 59.96 61.98 61.12 63.39 65.43 65.89 64.82 65.05 65.83 67.16 67.99 69.83 70.46 71.50 71.98 72.01 72.32 71.20 72.77 72.05 72.81 73.94 74.16 75.16 75.46 74.95 75.28 76.38 75.68 75.43 75.11 76.07 75.15 77.05 76.31 75.58 76.01 75.30 75.76
60.49 61.86 61.86 62.53 62.65 62.55 62.41 64.39 61.99 62.37 62.34 64.94 64.57 65.47 65.49 64.93 64.32 64.30 65.11 66.22 67.84 68.84 69.67 70.22 71.77 72.41 72.68 72.37 71.94 71.59 72.78 72.85 74.50 74.90 75.30 75.52 75.30 75.62 75.13 74.59 74.96 76.18 77.05 76.22 75.89 75.20 75.62 74.59 73.80
60.78 61.59 62.72 63.18 62.25 63.39 64.56 62.25 62.48 62.19 63.94 65.33 65.11 65.09 64.98 65.24 64.86 65.58 65.97 66.70 67.78 67.82 69.35 69.63 70.89 71.40 72.45 72.50 72.08 73.79 73.93 74.52 75.27 75.38 74.57 75.65 74.38 74.21 74.09 73.89 75.34 75.69 76.69 76.21 75.76 75.21 75.49 74.16 72.94
62.43 62.28 62.05 62.25 61.99 63.25 60.88 61.96 63.34 63.57 64.99 64.35 64.27 64.21 64.88 65.14 65.33 65.98 66.50 66.26 66.85 67.87 68.76 69.34 69.23 70.09 71.87 72.06 72.07 74.54 72.90 72.46 74.05 74.87 73.96 74.99 75.34 75.13 74.10 74.61 74.92 74.60 76.71 77.36 76.51 76.09 75.60 75.04 74.46
63.19 59.60 61.37 61.52 61.69 61.44 61.88 59.98 60.81 64.03 64.99 63.82 64.08 64.58 64.82 65.35 66.18 66.16 67.32 67.33 67.85 68.26 68.43 67.67 69.64 69.86 70.63 71.04 71.60 72.42 72.94 74.57 75.40 74.92 75.28 74.07 73.27 74.59 74.00 74.10 73.88 74.18 75.54 76.17 76.57 76.18 75.29 74.01 74.46
60.09 60.02 55.97 60.46 61.98 61.99 61.17 55.44 61.49 62.99 63.09 62.85 63.81 64.29 65.00 65.69 66.56 67.44 67.88 68.80 69.05 69.27 67.71 68.01 68.99 69.83 70.25 71.53 72.72 72.50 73.64 75.33 75.11 75.18 75.42 74.44 73.60 73.32 73.99 73.60 73.79 72.48 74.76 76.83 76.26 76.29 75.77 74.96 73.53
57.96 54.45 55.07 57.24 62.19 60.93 59.80 56.66 62.41 63.50 62.88 62.75 63.70 64.21 64.73 65.74 67.10 68.42 68.22 69.10 69.18 68.89 68.62 67.72 68.16 68.86 69.60 71.33 72.72 74.36 75.02 74.42 74.82 75.42 75.55 74.56 74.32 73.43 73.24 73.26 73.64 74.19 74.82 76.03 76.11 75.82 74.04 73.45 71.89
53.27 53.29 54.91 55.31 59.65 60.14 58.31 57.82 61.12 64.03 61.76 61.48 63.78 63.92 65.09 65.53 66.81 68.63 68.80 69.11 69.30 68.90 68.97 69.16 69.39 70.40 71.49 72.18 73.68 74.74 74.31 74.65 75.82 75.51 75.59 75.08 74.93 72.50 73.69 73.25 73.16 74.13 73.37 75.53 75.77 74.83 74.19 73.48 73.12
56.77 54.54 52.91 56.81 60.83 59.00 58.53 58.52 59.06 63.02 63.49 63.33 62.39 63.17 64.03 65.82 68.03 69.29 69.44 69.48 69.22 68.73 68.79 68.78 69.07 70.26 71.84 71.98 72.83 73.22 72.91 74.92 75.29 75.26 75.65 75.74 74.92 73.83 73.76 72.75 72.53 73.40 73.13 75.26 75.94 74.93 73.52 73.11 72.13
56.71 54.31 52.21 57.37 60.88 59.72 58.47 58.01 60.87 61.15 62.68 63.23 63.16 63.65 62.74 66.06 67.27 68.54 69.18 69.73 69.50 68.99 68.75 69.48 69.25 70.07 72.54 72.61 73.38 73.74 74.32 74.95 75.51 75.30 74.87 75.54 74.76 74.88 74.45 74.00 73.05 72.47 74.74 75.89 76.07 73.99 72.37 72.73 73.49
52.95 51.51 52.26 52.41 59.23 60.21 58.47 56.82 59.23 61.06 62.19 63.32 64.45 65.52 65.18 65.78 66.66 68.01 68.83 69.34 69.75 69.22 69.18 68.75 69.58 70.23 71.73 73.73 73.02 73.69 74.38 75.18 74.49 73.63 74.19 74.08 75.45 74.68 73.01 73.44 72.78 72.54 74.09 75.51 76.64 76.36 74.47 73.80 73.83
47.08 50.78 54.08 56.71 55.91 52.59 58.12 49.43 55.45 59.80 60.46 61.63 62.82 64.61 64.71 64.30 66.72 68.08 68.80 69.08 69.51 69.75 70.41 69.68 70.13 70.97 71.60 73.22 73.06 73.31 74.48 72.07 75.04 73.82 74.01 74.73 76.15 75.61 74.25 73.17 72.97 73.09 75.34 76.08 77.16 77.76 76.90 75.98 74.07
49.51 55.49 56.61 57.31 55.46 55.09 54.51 52.37 55.26 58.20 58.16 60.84 62.53 63.68 65.58 66.36 66.49 67.23 66.14 69.27 70.15 70.69 70.47 70.51 70.81 71.32 72.18 72.96 73.80 72.84 72.83 72.96 74.01 74.30 75.69 75.37 76.51 76.22 74.21 73.99 74.32 75.67 75.72 76.28 76.87 77.59 77.51 76.88 75.61
59.33 57.87 56.97 56.59 55.57 49.11 51.64 52.59 51.32 55.82 58.37 59.98 62.77 63.99 64.89 66.49 66.88 67.64 68.50 69.05 70.06 71.02 70.83 71.27 71.35 72.04 73.09 73.24 73.83 73.86 73.50 73.34 72.53 73.55 73.63 74.74 74.82 75.15 76.02 74.96 75.49 76.25 76.37 76.95 77.49 77.86 76.43 77.08 76.93
56.05 54.27 47.63 46.52 47.20 45.15 51.60 52.03 53.43 57.74 60.51 61.48 62.58 63.16 65.02 66.45 67.51 67.01 67.30 68.74 69.44 70.37 70.77 71.20 71.98 72.34 73.25 73.26 73.53 73.77 74.10 74.18 73.98 74.04 73.52 74.40 73.85 75.24 75.24 76.03 75.63 75.43 75.83 76.73 77.50 77.86 76.93 77.27 76.40
53.77 52.12 45.24 39.54 41.91 44.58 52.24 49.17 53.94 59.93 61.36 62.31 64.30 65.30 65.06 65.55 67.04 68.18 67.94 68.46 69.68 69.30 71.23 71.42 72.10 72.43 73.03 73.34 73.82 74.22 74.76 73.57 73.62 74.35 73.81 74.06 74.21 74.62 76.26 75.79 76.18 76.43 76.61 76.96 76.88 78.39 77.05 77.04 77.37
48.80 48.70 50.02 45.65 45.23 44.42 48.27 52.47 57.94 59.97 60.60 61.96 62.45 63.16 64.35 65.52 66.45 67.11 68.87 68.16 69.28 68.84 71.00 71.53 72.21 72.88 73.36 73.39 74.05 74.16 74.27 73.99 73.88 74.69 74.70 74.92 75.87 75.36 75.82 75.85 75.96 76.79 76.79 77.02 77.09 78.00 76.70 76.92 76.95
49.14 49.50 45.62 47.38 40.52 39.45 45.98 48.89 51.81 56.79 58.35 59.96 60.18 61.38 63.08 64.88 65.64 66.96 68.22 68.51 68.29 68.08 71.08 71.83 72.65 72.80 73.30 73.39 73.77 73.91 74.37 74.83 74.88 75.06 74.49 74.85 75.90 75.79 75.62 75.23 75.71 76.32 76.68 76.40 77.16 76.85 76.62 76.06 75.74
49.86 50.29 48.58 49.39 47.81 42.29 41.49 46.84 57.30 57.80 57.64 57.85 58.93 60.57 61.80 63.48 65.94 66.43 67.79 69.09 69.57 69.11 69.95 70.95 71.66 72.34 72.78 73.06 73.72 74.02 74.35 74.52 74.85 74.51 74.76 75.20 75.63 75.20 75.01 75.39 75.01 75.45 75.40 76.21 77.16 76.57 76.13 75.34 75.92
53.04 51.74 51.25 46.66 45.85 48.06 47.38 48.21 57.28 58.55 58.83 58.98 59.61 61.67 65.10 66.27 66.93 67.88 67.42 68.66 69.29 69.59 69.88 70.50 71.71 72.03 72.67 73.08 73.83 73.75 74.28 74.47 74.24 74.45 74.93 75.34 75.15 75.56 75.26 75.26 75.16 75.39 75.29 76.09 75.83 74.98 75.34 75.37 74.11
MSLP
1010.54 1010.59 1010.76 1010.78 1010.96 1009.79 1009.73 1009.85 1009.88 1010.25 1010.64 1011.21 1011.47 1011.78 1012.24 1012.79 1012.89 1013.90 1014.43 1014.59 1014.62 1014.80 1015.10 1015.39 1015.71 1015.95 1016.18 1016.33 1016.47 1016.43 1016.54 1016.75 1016.70 1016.68 1016.82 1016.85 1017.07 1017.07 1017.18 1017.24 1017.40 1017.56 1017.49 1017.64 1017.81 1017.81 1018.07 1018.06 1018.13
1010.43 1010.68 1010.70 1010.35 1010.24 1009.46 1009.71 1009.76 1009.94 1010.59 1011.22 1011.55 1011.74 1012.22 1012.56 1013.09 1013.68 1014.14 1014.34 1014.76 1014.77 1015.02 1015.10 1015.33 1015.83 1016.06 1016.27 1016.39 1016.55 1016.59 1016.74 1016.93 1017.01 1016.94 1016.95 1017.02 1017.11 1017.24 1017.39 1017.50 1017.70 1017.70 1017.87 1018.02 1018.15 1018.16 1018.17 1018.28 1018.37
1010.39 1010.37 1010.28 1010.11 1010.00 1009.40 1009.50 1009.84 1010.30 1011.00 1011.38 1011.53 1012.01 1012.52 1013.01 1013.59 1014.10 1014.19 1014.52 1014.81 1014.97 1015.22 1015.40 1015.52 1015.90 1016.11 1016.36 1016.50 1016.69 1016.76 1016.91 1017.18 1017.30 1017.12 1017.12 1017.04 1017.29 1017.63 1017.76 1017.89 1017.84 1017.83 1018.07 1018.14 1018.33 1018.38 1018.42 1018.54 1018.59
1010.13 1010.42 1010.46 1010.07 1009.76 1009.75 1009.67 1010.03 1010.51 1010.97 1011.51 1011.93 1012.25 1012.85 1013.67 1014.08 1014.06 1014.37 1014.78 1014.85 1015.04 1015.20 1015.36 1015.73 1016.00 1016.20 1016.41 1016.66 1016.95 1017.17 1017.32 1017.39 1017.33 1017.10 1017.16 1017.41 1017.62 1017.66 1017.84 1018.04 1018.00 1018.07 1018.17 1018.18 1018.41 1018.34 1018.47 1018.57 1018.66
1010.15 1010.10 1009.98 1009.89 1009.94 1009.77 1009.83 1010.20 1010.62 1010.88 1011.54 1012.13 1012.52 1013.14 1013.80 1014.46 1014.44 1014.65 1014.93 1015.10 1015.11 1015.30 1015.57 1015.86 1016.04 1016.40 1016.68 1017.05 1017.22 1017.45 1017.54 1017.69 1017.34 1017.36 1017.49 1017.74 1017.70 1017.94 1018.10 1018.05 1018.09 1018.15 1018.20 1018.33 1018.45 1018.42 1018.43 1018.51 1018.56
1010.01 1010.34 1010.27 1010.04 1010.24 1010.11 1010.23 1010.47 1010.65 1011.15 1011.80 1012.35 1012.72 1013.17 1014.22 1014.81 1014.70 1014.89 1015.12 1015.28 1015.27 1015.52 1015.92 1016.11 1016.16 1016.59 1016.90 1017.27 1017.48 1017.52 1017.62 1017.56 1017.37 1017.38 1017.58 1017.79 1017.97 1018.15 1018.19 1018.24 1018.24 1018.16 1018.30 1018.42 1018.33 1018.35 1018.44 1018.49 1018.54
1010.11 1010.49 1010.72 1010.58 1010.71 1010.60 1010.67 1010.62 1010.60 1011.20 1011.75 1012.29 1012.86 1013.18 1014.42 1014.75 1015.02 1015.16 1015.34 1015.57 1015.52 1015.73 1015.93 1016.46 1016.52 1016.65 1017.10 1017.35 1017.56 1017.66 1017.56 1017.57 1017.53 1017.60 1017.63 1017.99 1018.11 1018.24 1018.34 1018.38 1018.33 1018.31 1018.30 1018.36 1018.29 1018.31 1018.37 1018.50 1018.51
1010.65 1010.92 1011.25 1011.34 1011.10 1011.46 1011.22 1010.83 1010.98 1011.13 1012.01 1012.50 1012.81 1012.96 1013.90 1014.62 1015.20 1015.41 1015.62 1015.78 1015.90 1015.96 1016.15 1016.63 1016.79 1016.88 1017.14 1017.46 1017.48 1017.62 1017.64 1017.64 1017.71 1017.79 1017.97 1018.23 1018.29 1018.37 1018.39 1018.37 1018.42 1018.24 1018.31 1018.30 1018.15 1018.12 1018.22 1018.32 1018.43
1010.93 1011.16 1011.56 1011.73 1011.87 1011.96 1011.61 1011.27 1011.36 1011.64 1011.97 1012.48 1012.88 1013.15 1013.62 1014.78 1015.31 1015.56 1015.76 1016.01 1016.26 1016.28 1016.38 1016.50 1016.88 1017.14 1017.38 1017.45 1017.60 1017.57 1017.75 1017.78 1017.86 1017.90 1018.23 1018.24 1018.16 1018.15 1018.01 1018.38 1018.33 1018.20 1018.30 1018.23 1018.12 1018.03 1018.08 1018.09 1018.15
1010.85 1011.42 1012.01 1012.35 1012.37 1012.32 1011.97 1011.65 1011.41 1011.70 1012.01 1012.70 1013.32 1013.98 1014.34 1014.92 1015.29 1015.60 1015.79 1015.96 1016.25 1016.50 1016.71 1016.59 1016.74 1017.12 1017.43 1017.41 1017.69 1017.76 1017.91 1017.81 1017.94 1018.08 1018.29 1018.23 1018.37 1018.21 1018.15 1018.35 1018.31 1018.29 1018.27 1018.12 1017.92 1017.91 1017.87 1017.76 1017.70
1011.15 1011.71 1012.53 1013.01 1013.03 1012.84 1012.39 1011.87 1011.56 1011.70 1011.89 1012.38 1013.06 1013.94 1014.45 1014.97 1015.37 1015.61 1015.93 1016.16 1016.35 1016.75 1016.89 1016.98 1017.00 1017.43 1017.47 1017.86 1017.67 1017.97 1018.01 1017.97 1018.05 1018.27 1018.23 1018.41 1018.33 1018.21 1018.20 1018.20 1018.09 1018.09 1018.18 1017.76 1017.73 1017.80 1017.80 1018.10 1018.11
1011.26 1012.08 1012.47 1013.07 1013.51 1013.19 1012.71 1012.30 1011.71 1011.87 1012.09 1012.29 1013.26 1014.10 1014.29 1014.82 1015.37 1015.50 1015.88 1016.24 1016.59 1016.80 1016.99 1017.13 1017.15 1017.39 1017.53 1017.73 1017.76 1018.02 1018.01 1018.06 1017.91 1018.20 1018.26 1018.32 1018.20 1018.25 1018.43 1018.32 1018.37 1018.09 1017.98 1017.88 1017.84 1017.95 1018.06 1017.71 1017.27
1011.43 1012.18 1012.60 1013.08 1013.40 1013.14 1012.90 1012.37 1012.23 1012.25 1012.49 1012.70 1013.52 1014.29 1014.48 1014.72 1015.25 1015.65 1015.89 1016.32 1016.67 1016.84 1017.11 1017.37 1017.44 1017.62 1017.61 1017.91 1018.04 1017.77 1017.92 1017.98 1018.04 1018.16 1018.29 1018.34 1018.36 1018.34 1018.49 1018.63 1018.33 1018.12 1018.02 1017.78 1018.12 1018.15 1018.01 1018.55 1018.76
1011.76 1012.02 1012.64 1013.10 1013.39 1013.30 1012.95 1012.51 1012.41 1012.39 1012.70 1013.01 1013.51 1014.15 1014.60 1014.79 1015.08 1015.58 1015.97 1016.25 1016.57 1016.85 1017.16 1017.48 1017.76 1017.85 1017.85 1017.95 1018.14 1017.84 1018.27 1018.26 1018.30 1018.17 1018.36 1018.59 1018.46 1018.51 1018.60 1018.66 1018.38 1018.23 1018.08 1017.95 1018.21 1018.35 1018.53 1018.72 1018.70
1011.62 1011.94 1012.44 1012.99 1013.25 1013.38 1013.23 1012.71 1012.26 1012.58 1012.78 1013.07 1013.39 1014.01 1014.49 1014.79 1014.95 1015.28 1015.55 1016.08 1016.31 1016.59 1017.19 1017.68 1017.60 1017.81 1018.05 1018.20 1018.26 1018.24 1018.32 1018.12 1018.03 1018.20 1018.46 1018.67 1018.78 1018.73 1018.78 1018.72 1018.51 1018.36 1018.41 1018.29 1018.44 1018.54 1018.71 1018.90 1018.64
1011.23 1011.64 1011.90 1012.68 1012.89 1013.19 1013.34 1012.47 1012.86 1012.91 1012.83 1013.07 1013.39 1013.79 1014.23 1014.47 1014.60 1014.96 1015.46 1015.83 1016.25 1016.54 1017.20 1017.75 1017.56 1017.74 1017.91 1018.05 1017.99 1017.98 1018.01 1017.92 1018.02 1018.22 1018.31 1018.66 1018.90 1018.82 1018.89 1018.77 1018.55 1018.83 1018.59 1018.22 1018.33 1018.53 1018.60 1018.81 1018.85
1011.19 1011.16 1011.54 1012.10 1012.44 1012.65 1013.08 1012.37 1012.65 1013.02 1012.86 1012.97 1013.17 1013.54 1014.04 1014.18 1014.44 1014.67 1015.14 1015.69 1016.02 1016.62 1017.01 1017.45 1017.81 1017.99 1018.10 1018.10 1018.01 1017.79 1017.83 1017.86 1017.85 1018.12 1018.20 1018.57 1018.79 1018.84 1018.89 1018.73 1018.75 1018.85 1018.63 1018.41 1018.54 1018.67 1018.78 1018.65 1018.88
1010.43 1010.82 1011.25 1011.33 1011.81 1012.21 1012.38 1012.30 1012.54 1012.69 1012.87 1013.26 1013.07 1013.32 1013.42 1013.72 1013.81 1014.38 1014.78 1015.38 1015.73 1016.40 1016.93 1017.27 1017.60 1017.96 1018.15 1018.04 1018.00 1017.79 1017.73 1017.71 1017.85 1017.88 1018.11 1018.47 1018.68 1018.88 1018.97 1018.82 1018.79 1018.73 1018.62 1018.64 1018.72 1018.95 1019.01 1018.93 1018.90
1009.95 1010.26 1010.56 1010.89 1011.25 1011.65 1011.73 1011.86 1011.90 1012.33 1012.59 1012.80 1013.07 1013.16 1013.17 1012.98 1013.44 1014.05 1014.57 1015.01 1015.52 1016.03 1016.55 1017.01 1017.47 1017.83 1017.99 1017.98 1017.83 1017.73 1017.53 1017.71 1017.86 1017.78 1018.08 1018.33 1018.56 1018.77 1018.87 1018.68 1018.73 1018.60 1018.62 1018.73 1018.93 1018.91 1018.90 1018.94 1019.26
1009.52 1009.64 1010.11 1010.74 1011.08 1011.43 1011.35 1011.19 1011.05 1011.54 1011.86 1012.20 1012.34 1012.61 1012.53 1012.66 1013.09 1013.52 1014.12 1014.51 1014.91 1015.54 1016.10 1016.50 1017.06 1017.59 1017.85 1017.95 1017.80 1017.70 1017.65 1017.56 1017.64 1017.70 1017.91 1018.20 1018.40 1018.59 1018.63 1018.64 1018.57 1018.72 1018.82 1018.78 1018.89 1018.90 1018.79 1018.93 1019.13
1008.73 1009.01 1009.65 1010.04 1010.90 1011.25 1011.23 1010.48 1010.32 1010.82 1011.40 1011.80 1012.16 1012.09 1012.12 1012.04 1012.19 1012.61 1013.24 1013.81 1014.34 1014.81 1015.53 1016.03 1016.66 1017.24 1017.66 1017.95 1017.93 1017.87 1017.81 1017.73 1017.67 1017.76 1017.91 1018.00 1018.27 1018.48 1018.52 1018.54 1018.57 1018.74 1018.88 1018.82 1018.93 1018.81 1018.71 1018.63 1018.95
1008.04 1008.60 1009.08 1009.68 1010.22 1010.52 1010.98 1010.04 1009.77 1010.16 1010.48 1010.97 1011.15 1011.51 1011.54 1011.54 1011.80 1011.91 1012.33 1012.95 1013.50 1013.95 1014.93 1015.63 1016.30 1016.90 1017.31 1017.74 1017.88 1017.58 1017.38 1017.16 1017.33 1017.51 1017.76 1017.82 1018.09 1018.32 1018.34 1018.34 1018.59 1018.74 1018.66 1018.77 1018.73 1018.70 1018.69 1018.61 1018.47
1008.29 1008.49 1008.86 1009.36 1009.73 1010.18 1010.56 1010.37 1009.47 1009.99 1009.76 1009.69 1010.20 1010.51 1010.88 1010.90 1011.14 1011.62 1012.06 1012.15 1012.56 1013.65 1014.17 1015.01 1015.80 1016.48 1016.79 1017.23 1017.59 1017.61 1017.36 1017.11 1017.30 1017.58 1017.74 1017.88 1017.96 1018.19 1018.19 1018.27 1018.42 1018.46 1018.50 1018.66 1018.67 1018.57 1018.64 1018.54 1018.32
1008.31 1008.67 1009.09 1009.47 1009.65 1009.56 1009.75 1009.75 1008.46 1008.88 1008.87 1009.14 1009.36 1009.70 1010.12 1010.46 1010.84 1011.15 1011.60 1011.96 1012.42 1013.05 1013.78 1014.32 1015.18 1015.81 1016.33 1016.76 1017.13 1017.32 1017.39 1017.18 1017.07 1017.28 1017.34 1017.53 1017.71 1017.92 1017.99 1018.14 1018.33 1018.43 1018.37 1018.49 1018.44 1018.50 1018.59 1018.39 1018.34
1008.03 1007.87 1008.09 1008.60 1008.88 1008.84 1009.76 1009.58 1008.14 1008.40 1008.77 1009.04 1009.09 1009.31 1009.55 1010.03 1010.49 1010.72 1011.05 1011.25 1011.62 1012.31 1013.04 1013.79 1014.48 1015.08 1015.60 1016.17 1016.64 1016.88 1017.08 1017.11 1017.04 1017.10 1017.07 1017.24 1017.44 1017.62 1017.83 1017.94 1018.17 1018.28 1018.28 1018.19 1018.15 1018.19 1018.32 1018.29 1018.23
1007.60 1007.51 1007.55 1007.88 1008.44 1008.59 1009.66 1008.71 1007.81 1008.33 1008.76 1008.88 1009.16 1009.27 1009.51 1009.64 1009.76 1009.93 1010.37 1010.92 1011.41 1011.83 1012.54 1013.17 1013.73 1014.35 1014.99 1015.58 1016.01 1016.54 1016.85 1016.82 1016.98 1017.09 1017.13 1017.06 1017.11 1017.22 1017.37 1017.56 1017.71 1017.86 1018.02 1017.78 1017.87 1018.05 1018.07 1018.19 1018.25
1007.86 1007.91 1008.01 1008.16 1009.22 1008.79 1008.54 1008.42 1007.89 1008.10 1008.41 1008.85 1008.92 1009.20 1009.20 1009.16 1009.26 1009.24 1009.70 1010.27 1010.73 1011.47 1011.80 1012.47 1013.04 1013.60 1014.30 1014.86 1015.52 1016.05 1016.43 1016.67 1016.77 1017.07 1017.11 1016.95 1017.07 1017.03 1017.18 1017.37 1017.56 1017.52 1017.54 1017.56 1017.60 1017.72 1018.03 1018.10 1018.09
1007.57 1008.15 1008.22 1008.29 1008.34 1008.20 1008.22 1008.23 1007.57 1007.74 1007.94 1008.60 1008.98 1008.97 1009.12 1009.12 1009.09 1009.15 1009.27 1009.78 1010.29 1010.85 1011.18 1011.84 1012.51 1013.04 1013.46 1014.23 1014.92 1015.38 1015.82 1016.30 1016.52 1016.76 1016.87 1016.85 1016.86 1016.90 1017.15 1017.40 1017.36 1017.21 1017.29 1017.42 1017.65 1017.62 1017.81 1017.96 1017.97
1008.07 1008.02 1008.47 1008.39 1008.63 1007.93 1007.83 1007.64 1007.52 1007.62 1008.09 1008.56 1008.84 1009.15 1009.15 1009.09 1009.04 1009.08 1009.10 1009.37 1009.74 1010.73 1011.18 1011.60 1012.04 1012.57 1013.18 1013.65 1014.25 1014.97 1015.38 1015.77 1016.14 1016.31 1016.50 1016.59 1016.79 1017.03 1017.10 1017.05 1017.26 1017.30 1017.27 1017.33 1017.44 1017.48 1017.60 1017.66 1017.76
1008.64 1008.49 1008.36 1007.94 1008.74 1008.81 1008.41 1007.76 1007.94 1008.22 1008.54 1008.87 1009.01 1009.24 1009.33 1009.11 1009.02 1008.96 1008.96 1009.27 1009.74 1010.24 1010.88 1011.37 1011.80 1012.19 1012.59 1013.13 1013.73 1014.25 1015.02 1015.46 1015.78 1015.97 1016.13 1016.28 1016.49 1016.78 1016.95 1017.04 1017.08 1017.18 1017.12 1017.06 1017.11 1017.20 1017.18 1017.41 1017.40
Wind_Speed
6 5 3 2 2 1 3 3 2 7 5 1 2 0 2 5 3 3 4 2 8 10 9 10 8 10 9 6 9 9 9 7 9 13 12 12 11 10 10 9 10 12 11 11 10 12 12 10 11
5 5 1 1 1 2 4 2 6 4 6 10 10 6 3 4 3 7 5 7 9 8 7 8 8 10 8 7 7 9 10 8 8 10 12 13 11 11 10 11 12 14 13 12 11 12 11 10 10
3 2 2 2 2 2 3 2 10 11 7 2 5 5 3 3 4 5 6 10 9 8 7 8 9 10 11 10 10 7 9 9 12 10 12 12 12 12 13 14 13 13 12 13 11 10 10 9 9
4 2 1 1 6 4 2 12 12 9 6 4 8 8 5 5 4 3 10 9 9 8 7 8 9 11 12 11 13 11 6 7 9 11 12 12 13 14 14 13 13 13 11 11 10 10 10 9 8
1 1 2 3 7 3 6 11 6 6 4 5 0 5 4 3 6 12 10 9 9 7 6 6 13 12 15 17 15 8 5 8 10 11 12 13 15 14 13 12 12 13 12 10 10 9 8 8 7
2 1 2 3 6 8 7 7 4 5 5 5 6 6 4 4 7 8 8 8 7 7 6 5 10 13 16 20 8 6 7 8 10 11 12 14 13 12 12 11 11 12 11 10 9 9 8 8 7
3 2 3 5 6 7 5 5 3 6 7 5 6 4 4 5 6 6 7 7 6 5 6 6 4 11 14 18 14 7 8 9 10 11 12 12 11 10 10 9 10 9 9 8 7 7 7 7 9
3 2 2 3 4 5 5 2 9 6 6 6 2 4 6 8 8 8 6 6 6 7 7 7 6 6 9 9 13 10 9 10 11 12 11 12 10 7 8 5 7 6 7 7 6 7 11 13 13
1 2 4 4 3 4 6 2 3 4 9 2 3 3 9 14 10 9 8 8 7 6 7 7 7 7 7 8 9 9 9 10 9 9 9 7 5 5 5 7 5 6 7 5 7 9 12 12 13
2 2 2 3 6 4 5 1 5 5 4 4 7 11 14 13 10 9 7 8 8 8 7 7 8 8 6 6 6 5 4 5 4 6 6 4 4 3 4 5 5 8 4 3 7 8 11 10 4
2 3 6 5 6 5 3 3 2 9 2 2 9 13 13 11 8 8 6 7 9 7 5 6 7 7 5 3 4 2 2 3 4 5 3 4 2 1 2 3 3 2 3 4 6 6 2 6 3
2 5 3 8 3 4 3 3 3 5 2 6 12 12 12 11 8 7 7 7 9 8 7 6 7 6 5 4 3 2 3 3 3 3 3 4 3 2 1 2 2 0 1 4 3 3 5 5 5
5 4 5 11 8 1 3 2 4 5 7 13 13 11 10 9 7 5 5 6 7 8 7 6 5 4 5 5 1 2 3 2 2 3 4 4 4 2 2 2 2 1 1 3 2 3 2 2 4
4 7 11 6 4 4 4 3 2 7 11 12 12 10 8 8 7 7 7 6 7 7 7 7 5 4 4 4 1 2 1 2 1 2 3 4 2 2 1 1 0 2 2 0 1 1 1 1 1
11 11 7 4 4 2 7 8 4 10 10 11 11 9 8 8 7 8 8 8 7 7 8 7 8 4 3 3 2 1 2 2 1 1 1 4 3 2 1 1 1 3 3 2 2 1 2 0 1
4 3 4 3 7 4 2 2 7 5 10 10 11 9 9 9 9 8 6 7 7 7 6 5 6 6 4 4 3 2 3 1 1 1 1 4 3 3 3 1 1 3 3 1 2 1 1 1 1
3 3 1 4 8 4 4 1 7 11 10 10 11 10 8 9 9 8 8 8 9 7 6 6 4 6 4 4 3 3 2 2 1 2 1 4 2 3 2 1 0 1 2 1 1 1 3 2 0
3 2 2 3 8 6 6 7 6 10 8 8 11 11 11 11 11 9 10 9 9 9 7 7 7 6 6 4 4 2 2 2 2 2 2 4 2 3 2 2 3 2 1 0 2 2 2 2 2
5 2 1 2 5 8 10 9 10 11 10 13 12 12 12 13 10 9 11 11 10 9 10 9 8 8 6 4 3 2 2 2 2 3 4 5 3 3 3 2 4 2 1 2 1 2 2 2 2
6 6 3 1 5 9 5 14 15 11 13 14 15 14 13 13 11 12 12 12 12 12 11 11 10 8 7 4 3 2 1 2 1 3 3 4 4 3 3 3 3 1 1 1 1 2 2 1 1
9 9 5 1 6 5 2 7 9 7 10 9 12 15 13 15 15 14 14 15 13 13 13 12 11 9 7 6 4 2 1 2 3 3 3 4 5 4 3 4 3 2 2 1 1 1 0 2 2
12 5 7 12 7 0 3 4 2 7 8 13 14 15 16 13 14 14 16 16 16 15 12 13 12 11 9 8 6 7 5 4 2 2 2 3 5 5 3 3 2 3 1 1 0 1 2 0 1
3 3 9 11 4 3 4 3 2 2 9 15 16 17 17 19 18 15 12 17 17 13 13 12 12 12 11 10 10 6 6 3 2 3 4 3 4 5 3 3 3 2 2 1 2 1 2 0 1
13 12 8 4 1 4 2 4 4 3 2 1 7 17 18 17 17 17 15 12 14 13 12 12 13 13 12 11 11 10 9 7 5 4 4 4 3 4 4 4 3 1 2 2 1 1 0 1 1
5 6 2 5 5 4 1 5 7 3 5 4 5 6 16 16 15 16 17 18 17 16 16 13 14 13 12 12 11 11 10 8 7 5 4 4 4 4 5 5 5 4 5 5 3 2 1 1 2
9 6 4 7 7 6 3 5 2 1 3 5 4 5 5 14 17 18 17 17 17 15 16 16 14 14 13 13 12 11 11 6 6 6 4 4 4 4 5 5 5 6 6 4 3 3 1 1 2
7 6 2 4 1 4 2 4 9 7 8 5 4 4 6 11 15 20 18 17 18 15 17 18 16 14 13 14 11 11 9 9 7 7 5 4 4 5 5 5 6 6 5 5 4 2 2 3 2
3 8 4 2 6 8 5 4 4 6 8 6 5 6 3 4 9 14 18 17 15 13 16 17 16 16 15 13 11 11 11 10 8 7 7 6 4 5 6 6 5 5 5 5 6 4 5 4 2
4 4 5 3 2 6 7 4 3 4 2 3 4 3 6 6 7 12 15 16 17 11 13 15 15 15 14 14 13 12 12 11 9 8 7 6 4 5 6 4 4 5 5 7 5 4 5 5 4
1 1 3 5 5 1 4 3 1 2 3 2 5 4 4 8 9 10 14 15 15 14 12 15 14 15 14 13 13 13 12 10 10 9 8 6 6 6 6 5 6 5 5 5 4 3 3 4 5
Wind_Direction
170 160 157 200 193 119 85 79 98 123 125 66 91 95 84 40 9 43 79 57 134 141 140 144 132 124 115 117 128 125 124 122 135 132 134 128 122 126 114 114 106 109 103 110 106 104 101 102 100
157 147 155 201 83 124 106 96 118 61 108 112 98 103 60 72 53 107 129 120 126 122 138 135 140 128 125 106 124 119 112 119 123 116 126 123 124 111 105 93 93 94 92 90 88 91 93 91 92
169 249 263 90 96 90 121 84 115 123 124 121 109 65 61 48 78 117 105 130 130 123 131 138 154 129 124 109 108 107 120 119 111 141 120 114 104 98 91 88 86 86 88 86 88 91 93 90 90
189 165 157 68 84 69 95 131 125 120 102 59 116 91 95 29 116 105 127 127 129 128 132 143 137 129 124 103 91 77 96 105 120 116 111 105 100 90 83 85 86 87 91 95 99 99 92 89 87
69 220 93 122 71 84 124 130 129 88 88 103 228 118 88 60 104 129 130 129 126 118 111 135 129 121 115 90 86 76 129 144 120 108 105 99 88 86 84 80 81 95 95 95 93 90 92 87 83
110 54 119 147 106 101 117 137 119 86 109 120 119 110 77 101 130 127 120 117 121 119 99 74 116 117 115 102 88 172 117 121 110 112 108 92 88 85 84 84 81 82 84 87 92 95 94 95 92
84 68 123 122 135 101 111 138 94 102 99 100 134 95 100 131 129 129 118 114 108 105 102 75 80 122 119 126 137 127 121 121 115 103 94 92 92 91 86 74 74 77 83 82 81 90 97 101 94
93 85 68 24 127 96 15 94 116 86 75 114 177 143 156 149 139 124 116 111 108 119 110 85 81 110 115 128 122 109 105 114 99 98 92 86 83 85 86 112 81 71 72 74 82 91 104 103 103
135 99 145 146 74 81 22 115 91 64 128 89 32 99 120 132 136 125 127 117 118 119 121 108 104 105 114 123 99 100 92 86 90 90 87 102 95 95 99 72 56 71 72 98 109 120 125 121 121
42 63 69 19 102 8 5 165 145 127 135 84 99 101 125 139 147 141 145 135 135 128 129 128 122 118 113 114 91 70 72 85 88 81 85 99 92 69 33 63 81 80 100 150 162 148 153 169 165
62 69 130 117 74 4 339 140 191 131 269 150 153 143 143 147 149 143 138 139 147 129 131 131 120 110 125 92 114 93 94 102 99 79 90 96 128 115 92 95 98 103 136 187 186 166 120 98 117
55 74 112 129 28 8 27 340 121 125 40 120 135 152 151 154 161 154 149 147 150 153 142 140 124 130 126 106 103 137 102 101 104 87 73 101 126 119 109 99 103 217 125 182 186 127 123 158 163
78 117 76 120 148 289 306 94 38 138 113 121 132 153 163 158 161 154 154 148 153 160 155 155 149 140 134 114 123 135 92 103 91 87 52 98 116 123 164 146 165 258 242 202 171 145 176 71 31
112 119 111 128 116 21 52 279 287 144 138 136 146 159 172 173 176 163 168 171 172 167 158 160 171 163 131 140 161 81 97 75 46 52 60 85 120 159 109 196 141 269 283 289 161 124 25 48 285
122 111 117 116 104 120 147 262 165 144 157 155 161 170 179 194 189 211 178 184 186 175 153 179 178 166 150 135 128 208 194 183 17 98 105 102 94 162 154 182 341 325 355 273 192 228 37 58 296
109 127 163 130 175 147 186 183 142 166 158 174 173 184 197 198 205 220 205 194 190 184 158 176 185 184 164 173 196 224 234 279 170 133 70 151 111 152 157 162 13 357 331 171 111 278 4 48 350
29 95 131 157 196 148 212 59 155 178 190 185 185 201 201 210 206 219 206 205 193 181 175 174 196 194 201 201 221 228 217 213 167 151 155 141 149 131 201 179 18 331 338 31 67 33 12 22 93
135 146 207 243 191 210 202 246 173 187 186 196 204 204 212 212 216 203 212 202 204 179 183 196 195 202 204 209 221 229 207 201 216 202 149 162 154 183 241 246 259 279 252 269 81 92 70 68 60
119 142 265 246 175 199 228 252 229 199 216 207 204 209 222 221 208 203 205 202 200 195 186 198 202 195 198 189 198 233 227 192 198 181 148 140 155 166 180 201 221 245 254 23 62 154 178 108 102
264 286 281 83 168 209 240 251 246 222 222 216 205 209 213 218 212 204 205 207 203 200 201 201 205 197 209 196 206 257 207 205 193 173 156 162 173 155 203 200 203 230 113 67 111 227 151 91 108
247 252 194 290 154 207 284 263 236 222 222 229 211 223 221 216 209 214 210 208 210 207 199 204 199 197 214 223 207 179 170 206 203 197 184 179 176 175 207 191 199 216 206 97 182 186 23 93 123
272 269 189 147 169 111 234 320 268 222 240 222 220 207 218 221 221 217 214 210 208 214 200 199 197 194 203 207 228 225 203 206 193 198 146 171 160 164 191 146 159 179 143 195 103 112 63 209 79
310 156 156 158 145 187 172 254 160 215 236 238 221 216 212 217 223 211 215 215 216 205 204 195 197 197 200 199 207 229 240 227 189 189 191 181 153 158 174 157 189 128 186 224 282 88 76 213 314
133 108 100 90 118 237 100 258 275 196 234 222 231 224 213 216 218 220 217 215 220 206 207 198 192 191 196 195 208 210 234 223 213 195 208 193 175 170 180 189 220 168 246 246 228 79 126 330 78
188 186 199 218 209 284 91 201 265 235 222 253 267 233 221 212 215 213 207 208 207 204 203 206 196 199 200 197 203 213 225 233 228 213 211 197 193 191 178 195 197 207 231 246 220 202 201 316 199
200 244 239 260 235 260 140 225 232 166 219 261 257 245 211 219 216 218 213 206 210 205 199 204 202 204 200 200 204 212 219 224 234 226 218 237 224 188 164 195 206 216 215 236 238 224 223 235 248
154 205 21 154 97 249 170 260 260 231 238 211 240 228 265 247 225 220 212 209 208 195 199 202 205 213 200 206 203 206 214 214 226 228 231 241 220 197 188 220 221 232 203 206 229 243 243 230 188
247 126 174 178 229 246 203 261 253 219 217 208 237 249 287 283 229 227 219 213 208 207 201 202 206 207 206 203 209 212 209 215 214 216 223 232 223 215 204 207 225 225 216 211 228 246 241 228 230
153 180 69 111 282 269 254 237 231 242 193 233 251 253 301 289 249 228 223 214 216 205 202 205 202 207 207 200 197 206 210 214 213 215 225 242 234 228 224 189 215 230 224 231 216 226 222 242 237
296 27 239 250 184 247 308 251 35 270 283 264 277 291 309 297 288 244 226 220 217 211 201 203 201 202 205 200 196 197 209 215 220 219 228 231 245 236 234 230 225 220 220 245 254 242 256 256 269